| time (UTC) | temp F | wind direction | speed knots | gust knots | rain 1hr in | rain 24hr in | rain mn in | humidity % | barometer mb |
| 20260902174002 | 90 | 203 | 1.7 | 3.5 | 0.00 | 0.00 | 0.00 | 55 | 1009.8 |
| 20260902172902 | 89 | 113 | 7.0 | 7.0 | 0.00 | 0.00 | 0.00 | 55 | 1009.8 |
| 20260902171202 | 88 | 135 | 3.5 | 3.5 | 0.00 | 0.00 | 0.00 | 55 | 1009.8 |
| 20260902170004 | 87 | 158 | 2.6 | 2.6 | 0.00 | 0.00 | 0.00 | 55 | 1010.2 |
| 20260902124002 | 74 | 158 | 0.0 | 0.0 | 0.00 | 0.00 | 0.00 | 79 | 1010.5 |
| 20260902122102 | 73 | 158 | 0.9 | 0.9 | 0.00 | 0.00 | 0.00 | 80 | 1010.5 |
| 20260902115503 | 72 | 158 | 1.7 | 1.7 | 0.00 | 0.00 | 0.00 | 81 | 1010.5 |
| 20260902112002 | 72 | 180 | 0.0 | 0.0 | 0.00 | 0.00 | 0.00 | 83 | 1010.2 |
| 20260902105702 | 73 | 248 | 0.9 | 3.5 | 0.00 | 0.00 | 0.00 | 83 | 1010.5 |
| 20260902104602 | 73 | 225 | 1.7 | 2.6 | 0.00 | 0.00 | 0.00 | 83 | 1010.5 |
| 20260902103502 | 73 | 248 | 0.0 | 1.7 | 0.00 | 0.00 | 0.00 | 83 | 1010.5 |
| 20260902102403 | 73 | 270 | 0.9 | 0.9 | 0.00 | 0.00 | 0.00 | 81 | 1010.2 |
| 20260902101302 | 73 | 270 | 0.0 | 0.0 | 0.00 | 0.00 | 0.00 | 81 | 1010.8 |
| 20260902100003 | 73 | 270 | 0.0 | 0.0 | 0.00 | 0.00 | 0.00 | 81 | 1010.5 |
| 20260902094802 | 73 | 248 | 0.0 | 0.0 | 0.00 | 0.00 | 0.00 | 81 | 1010.8 |
| 20260902093701 | 74 | 248 | 0.0 | 0.0 | 0.00 | 0.00 | 0.00 | 81 | 1010.8 |
| 20260902092602 | 74 | 180 | 0.0 | 0.0 | 0.00 | 0.00 | 0.00 | 81 | 1010.5 |
| 20260902091402 | 75 | 225 | 1.7 | 1.7 | 0.00 | 0.00 | 0.00 | 79 | 1010.5 |
| 20260902090302 | 75 | 248 | 0.9 | 0.9 | 0.00 | 0.00 | 0.00 | 75 | 1010.5 |
| 20260902084103 | 77 | 158 | 0.0 | 0.9 | 0.00 | 0.00 | 0.00 | 73 | 1010.8 |
| 20260902083003 | 77 | 113 | 1.7 | 1.7 | 0.00 | 0.00 | 0.00 | 70 | 1011.2 |
| 20260902081902 | 77 | 158 | 0.9 | 0.9 | 0.00 | 0.00 | 0.00 | 70 | 1010.8 |
| 20260902080802 | 78 | 158 | 0.9 | 2.6 | 0.00 | 0.00 | 0.00 | 69 | 1010.8 |
| 20260902075702 | 79 | 180 | 2.6 | 2.6 | 0.00 | 0.00 | 0.00 | 65 | 1011.2 |
| 20260902073503 | 79 | 90 | 1.7 | 2.6 | 0.00 | 0.00 | 0.00 | 61 | 1009.8 |
| 20260902072502 | 79 | 270 | 0.9 | 2.6 | 0.00 | 0.00 | 0.00 | 61 | 1009.8 |
| 20260902071402 | 79 | 113 | 1.7 | 2.6 | 0.00 | 0.00 | 0.00 | 61 | 1009.8 |
| 20260902063902 | 80 | 90 | 3.5 | 3.5 | 0.00 | 0.00 | 0.00 | 61 | 1010.2 |
| 20260902062902 | 80 | 90 | 3.5 | 3.5 | 0.00 | 0.00 | 0.00 | 61 | 1009.8 |
| 20260902061802 | 81 | 270 | 1.7 | 1.7 | 0.00 | 0.00 | 0.00 | 61 | 1009.5 |
| 20260902060702 | 81 | 113 | 2.6 | 3.5 | 0.00 | 0.00 | 0.00 | 61 | 1009.8 |
| 20260902054502 | 81 | 158 | 4.3 | 4.3 | 0.00 | 0.00 | 0.00 | 61 | 1009.1 |
| 20260902053402 | 81 | 293 | 0.9 | 1.7 | 0.00 | 0.00 | 0.00 | 61 | 1009.5 |
| 20260902052306 | 81 | 180 | 3.5 | 3.5 | 0.00 | 0.00 | 0.00 | 61 | 1009.8 |
| 20260902051102 | 82 | 158 | 1.7 | 3.5 | 0.00 | 0.00 | 0.00 | 61 | 1009.8 |
| 20260902050006 | 82 | 158 | 0.9 | 1.7 | 0.00 | 0.00 | 0.00 | 61 | 1010.2 |
| 20260902045902 | 82 | 158 | 1.7 | 1.7 | 0.00 | 0.00 | 0.00 | 61 | 1010.2 |
| 20260902044702 | 82 | 113 | 5.2 | 5.2 | 0.00 | 0.00 | 0.00 | 61 | 1009.8 |
| 20260902043601 | 83 | 180 | 0.0 | 1.7 | 0.00 | 0.00 | 0.00 | 61 | 1009.8 |
| 20260902042502 | 83 | 158 | 0.0 | 1.7 | 0.00 | 0.00 | 0.00 | 61 | 1009.8 |
| 20260902041302 | 83 | 180 | 1.7 | 1.7 | 0.00 | 0.00 | 0.00 | 61 | 1009.8 |
| 20260902040202 | 83 | 158 | 1.7 | 3.5 | 0.00 | 0.00 | 0.00 | 61 | 1009.8 |
| 20260902035102 | 83 | 180 | 1.7 | 1.7 | 0.00 | 0.00 | 0.00 | 61 | 1009.8 |
| 20260902033902 | 84 | 23 | 1.7 | 2.6 | 0.00 | 0.00 | 0.00 | 63 | 1009.8 |
| 20260902032802 | 84 | 180 | 0.0 | 2.6 | 0.00 | 0.00 | 0.00 | 63 | 1009.8 |
| 20260902031702 | 83 | 158 | 0.9 | 1.7 | 0.00 | 0.00 | 0.00 | 65 | 1009.5 |
| 20260902030603 | 84 | 158 | 0.0 | 0.9 | 0.00 | 0.00 | 0.00 | 63 | 1009.8 |
| 20260902025503 | 85 | 225 | 0.9 | 1.7 | 0.00 | 0.00 | 0.00 | 61 | 1009.8 |
| 20260902024402 | 84 | 158 | 0.0 | 0.0 | 0.00 | 0.00 | 0.00 | 63 | 1009.5 |
| 20260902023302 | 85 | 0 | 0.9 | 0.9 | 0.00 | 0.00 | 0.00 | 63 | 1009.5 |
| 20260902022202 | 85 | 158 | 0.0 | 0.0 | 0.00 | 0.00 | 0.00 | 63 | 1009.1 |
| 20260902021102 | 86 | 158 | 0.0 | 0.0 | 0.00 | 0.00 | 0.00 | 61 | 1009.1 |
| 20260902013402 | 87 | 158 | 0.0 | 0.0 | 0.00 | 0.00 | 0.00 | 60 | 1008.8 |
| 20260902011202 | 88 | 180 | 0.0 | 0.0 | 0.00 | 0.00 | 0.00 | 58 | 1008.5 |
| 20260902005102 | 89 | 113 | 0.0 | 0.0 | 0.00 | 0.00 | 0.00 | 55 | 1008.8 |
| 20260902004102 | 90 | 113 | 1.7 | 1.7 | 0.00 | 0.00 | 0.00 | 54 | 1008.5 |
| 20260902002902 | 91 | 158 | 0.0 | 0.9 | 0.00 | 0.00 | 0.00 | 53 | 1008.5 |
| 20260902001702 | 92 | 113 | 2.6 | 2.6 | 0.00 | 0.00 | 0.00 | 51 | 1008.5 |
| 20260902000602 | 93 | 158 | 2.6 | 2.6 | 0.00 | 0.00 | 0.00 | 50 | 1008.8 |
| 20260901235402 | 94 | 113 | 2.6 | 2.6 | 0.00 | 0.00 | 0.00 | 50 | 1008.8 |
| 20260901234302 | 94 | 180 | 3.5 | 3.5 | 0.00 | 0.00 | 0.00 | 50 | 1008.8 |
| 20260901233202 | 94 | 338 | 3.5 | 4.3 | 0.00 | 0.00 | 0.00 | 50 | 1008.8 |
| 20260901231002 | 95 | 270 | 3.5 | 3.5 | 0.00 | 0.00 | 0.00 | 49 | 1008.8 |
| 20260901225503 | 96 | 158 | 2.6 | 2.6 | 0.00 | 0.00 | 0.00 | 50 | 1008.8 |